Nellis AFB, NV

7:32 PM PST on January 16, 2018 (GMT -0800)
Nellis Air Force Base

Weather History for KLSV - February, 2013

Change the Weather History Date:

Thursday, February 7, 2013

  Actual Average Record
Temperature  
Mean Temperature 53 °F -  
Max Temperature 65 °F 58 °F 76 °F (2015)
Min Temperature 41 °F 37 °F 30 °F (2002)
Degree Days  
Heating Degree Days 12    
Growing Degree Days 3 (Base 50)    
Moisture  
Dew Point 22 °F    
Average Humidity 31    
Maximum Humidity 45    
Minimum Humidity 22    
Precipitation  
Precipitation 0.00 in - - ()
Sea Level Pressure  
Sea Level Pressure 29.99 in    
Wind  
Wind Speed 6 mph (East)    
Max Wind Speed 22 mph    
Max Gust Speed 36 mph    
Visibility 7 miles    
Events      
Averages and records for this station are not official NWS values.
T = Trace of Precipitation, MM = Missing Value Source: NWS Daily Summary

Daily Weather History Graph

Daily Weather History Graph

Search for Another Location

Airport or City:

Trip Planner

Search our weather history database for the weather conditions in past years. The results will help you decide how hot, cold, wet, or windy it might be!

Date:

Astronomy

Feb. 07, 2013 Rise Set
Actual Time 6:35 AM PST 5:13 PM PST
Civil Twilight 6:08 AM PST 5:40 PM PST
Nautical Twilight 5:38 AM PST 6:10 PM PST
Astronomical Twilight 5:08 AM PST 6:40 PM PST
Moon 4:16 AM PST (2/7) 2:45 PM PST (2/7)
Length of Visible Light 11h 31m
Length of Day
10h 37m
Waning Crescent, 8% of the Moon is Illuminated
Feb 7
Waning Crescent
Feb 9
New
Feb 17
First Quarter
Feb 25
Full
Mar 4
Last Quarter

Hourly Weather History & Observations

Time (PST) Temp. Windchill Dew Point Humidity Pressure Visibility Wind Dir Wind Speed Gust Speed Precip Events Conditions
12:58 AM 51.8 °F - 16.9 °F 25% 30.06 in 4.0 mi North 4.6 mph - N/A   Haze
1:58 AM 48.6 °F - 15.4 °F 27% 30.07 in 5.0 mi NW 6.9 mph - N/A   Haze
2:33 AM 46.4 °F - 15.8 °F 29% 30.09 in 3.0 mi NNW 1.2 mph - N/A   Haze
2:43 AM 46.4 °F 44.3 °F 15.8 °F 29% 30.08 in 3.0 mi NW 4.6 mph - N/A   Haze
2:58 AM 45.9 °F 42.9 °F 16.5 °F 31% 30.06 in 4.0 mi NW 5.8 mph - N/A   Haze
3:23 AM 42.8 °F - 19.4 °F 39% 30.08 in 3.0 mi Calm Calm - N/A   Haze
3:28 AM 42.8 °F - 19.4 °F 39% 30.09 in 3.0 mi NNW 1.2 mph - N/A   Haze
3:58 AM 43.3 °F - 19.9 °F 39% 30.06 in 3.0 mi Calm Calm - N/A   Haze
4:03 AM 41.0 °F - 21.2 °F 45% 30.08 in 2.5 mi Calm Calm - N/A   Haze
4:13 AM 42.8 °F - 19.4 °F 39% 30.09 in 3.0 mi Variable 2.3 mph - N/A   Haze
4:53 AM 42.8 °F 40.1 °F 19.4 °F 39% 30.09 in 3.0 mi NE 4.6 mph - N/A   Haze
4:58 AM 42.6 °F 39.0 °F 20.8 °F 42% 30.08 in 3.0 mi NE 5.8 mph - N/A   Haze
5:03 AM 42.8 °F 38.6 °F 21.2 °F 42% 30.09 in 3.0 mi NE 6.9 mph - N/A   Haze
5:58 AM 44.4 °F 40.5 °F 20.5 °F 39% 30.09 in 3.0 mi ENE 6.9 mph - N/A   Haze
6:58 AM 41.2 °F 36.6 °F 20.5 °F 44% 30.10 in 10.0 mi North 6.9 mph - N/A   Clear
7:58 AM 44.1 °F 42.5 °F 23.9 °F 45% 30.12 in 10.0 mi East 3.5 mph - N/A   Clear
8:58 AM 53.2 °F - 22.3 °F 30% 30.10 in 10.0 mi East 11.5 mph - N/A   Clear
9:58 AM 56.8 °F - 21.6 °F 25% 30.09 in 10.0 mi Calm Calm - N/A   Clear
10:58 AM 58.5 °F - 22.1 °F 25% 30.06 in 10.0 mi Calm Calm - N/A   Clear
11:58 AM 60.6 °F - 23.0 °F 24% 30.02 in 10.0 mi Calm Calm - N/A   Clear
12:58 PM 62.2 °F - 23.4 °F 23% 29.97 in 10.0 mi Calm Calm - N/A   Clear
1:58 PM 63.9 °F - 23.5 °F 22% 29.93 in 10.0 mi Calm Calm - N/A   Clear
2:58 PM 65.1 °F - 25.7 °F 23% 29.91 in 10.0 mi SE 9.2 mph - N/A   Clear
3:58 PM 65.8 °F - 25.3 °F 22% 29.86 in 10.0 mi SE 13.8 mph - N/A   Clear
4:58 PM 64.2 °F - 25.0 °F 23% 29.85 in 10.0 mi ESE 16.1 mph - N/A   Clear
5:58 PM 63.1 °F - 24.3 °F 23% 29.84 in 10.0 mi SE 20.7 mph 25.3 mph N/A   Clear
6:58 PM 62.8 °F - 25.9 °F 25% 29.83 in 10.0 mi South 20.7 mph 35.7 mph N/A   Clear
7:58 PM 61.2 °F - 26.4 °F 27% 29.83 in 10.0 mi South 18.4 mph 25.3 mph N/A   Clear
8:58 PM 59.4 °F - 26.6 °F 29% 29.80 in 10.0 mi SSW 13.8 mph - N/A   Clear
9:58 PM 59.7 °F - 25.9 °F 27% 29.79 in 10.0 mi South 21.9 mph 27.6 mph N/A   Clear
10:58 PM 58.5 °F - 25.0 °F 28% 29.77 in 10.0 mi South 17.3 mph - N/A   Clear
11:58 PM 59.0 °F - 23.9 °F 26% 29.73 in 10.0 mi SSE 11.5 mph 27.6 mph N/A   Clear